www.pogodaiklimat.ru

Погода и климат >> Архив погоды >> Иран >> Bandarabbass


ПОГОДА в Bandarabbass

  • Прогноз погоды в Bandarabbass
  • Монитор погоды в Bandarabbass
  • Климат города

АРХИВ ПОГОДЫ в Bandarabbass

Время (UTC), дата Ветер
(напр.,м/с)
 
Видим.   Явления Облачность Т
(С)
Тd
(С)
f
(%)
Тe
(С)
Тes
(С)
Комфортность P
(гПа)
Po
(гПа)
Тmin
(С)
Tmax
(С)
R
(мм)
R24
(мм)
S
(см)
09 11.08 ЮВ 6 5000 м мгла 3/3 900 м
[Sc]
+36.1 +27.7 62 +56 +61 опасность
перегрева
1000.4 999.3
12 11.08 Ю 4 6000 м мгла 3/1 900 м
[Cu hum Ac trans]
+36.5 +28.6 64 +59 +63 опасность
перегрева
998.7 997.6
15 11.08 ЮВ 4 6000 м мгла 3/0
[Ac trans]
+33.3 +28.8 77 +56 +56 опасность
перегрева
998.5 997.4 +37.0
18 11.08 В 5 5000 м дымка 5/5 900 м
[Sc Ac trans]
+32.4 +29.2 83 +56 +56 опасность
перегрева
1000.0 998.9
21 11.08 В 4 5000 м дымка 5/5 900 м
[Sc]
+32.1 +28.5 81 +54 +54 опасность
перегрева
1000.0 998.9
00 12.08 СВ 3 5000 м дымка 3/1 600 м
[Sc Ac trans]
+30.8 +27.8 84 +50 +50 опасность
перегрева
999.7 998.7
03 12.08 С 2 4000 м дымка 4/4 900 м
[Sc]
+31.2 +28.2 84 +52 +53 опасность
перегрева
1000.7 999.7 +30.0
06 12.08 Ю 4 5000 м мгла 4/4 900 м
[Cu hum]
+35.4 +28.0 66 +56 +62 опасность
перегрева
1001.4 1000.3
09 12.08 ЮВ 6 5000 м мгла 3/3 900 м
[Cu hum]
+36.7 +28.4 63 +59 +64 опасность
перегрева
1000.2 999.1
12 12.08 Ю 4 5000 м мгла 1/1 900 м
[Cu hum]
+35.5 +29.4 71 +60 +65 опасность
перегрева
998.2 997.1
15 12.08 ЮВ 3 6000 м мгла ясно +34.4 +29.2 74 +58 +58 опасность
перегрева
997.5 996.4 +36.9
18 12.08 В 3 5000 м дымка ясно +33.0 +29.1 80 +57 +57 опасность
перегрева
999.2 998.1
21 12.08 СВ 3 4000 м дымка 3/3 750 м
[Sc]
+32.0 +29.3 86 +56 +56 опасность
перегрева
999.1 998.0
00 13.08 С 2 4000 м дымка 3/3 750 м
[Sc]
+31.0 +28.3 86 +52 +52 опасность
перегрева
997.7 996.7
03 13.08 С 2 4000 м дымка 1/1 750 м
[Sc]
+30.7 +28.4 88 +52 +54 опасность
перегрева
999.4 998.4 +29.7
06 13.08 Ю 5 5000 м мгла ясно +36.0 +28.8 67 +59 +67 опасность
перегрева
1000.5 999.4
09 13.08 Ю 6 6000 м мгла ясно +36.9 +28.0 60 +57 +65 опасность
перегрева
999.7 998.6
12 13.08 Ю 6 5000 м мгла 3/1 900 м
[Cu hum Ac trans]
+36.6 +29.2 66 +61 +63 опасность
перегрева
997.9 996.8
15 13.08 Ю 5 5000 м мгла 4/0
[Ac trans]
+34.8 +28.4 70 +57 +57 опасность
перегрева
998.2 997.1 +37.3
18 13.08 ЮВ 2 5000 м мгла 3/0
[Ac trans]
+33.9 +29.0 76 +58 +58 опасность
перегрева
1000.1 999.0
21 13.08 В 4 5000 м дымка 4/1 900 м
[Sc Ac trans]
+33.0 +29.3 81 +58 +58 опасность
перегрева
1000.6 999.5
00 14.08 В 2 5000 м дымка 3/1 900 м
[Sc Ac trans]
+31.4 +27.9 82 +52 +52 опасность
перегрева
1000.1 999.0
03 14.08 СВ 3 5000 м дымка ясно +31.8 +28.3 82 +53 +55 опасность
перегрева
1001.5 1000.4 +30.6
06 14.08 Ю 5 5000 м мгла 5/5 900 м
[Sc Ac trans]
+34.6 +28.7 72 +58 +62 опасность
перегрева
1002.8 1001.7
09 14.08 ЮВ 5 6000 м мгла 1/1 750 м
[Sc]
+36.2 +29.0 67 +60 +70 опасность
перегрева
1002.0 1000.9
12 14.08 Ю 6 6000 м мгла ясно +36.3 +28.4 64 +58 +61 опасность
перегрева
999.8 998.8
15 14.08 Ю 4 6000 м мгла 1/0
[Ci fib]
+33.4 +28.6 76 +56 +56 опасность
перегрева
999.9 998.8 +36.9
18 14.08 В 5 5000 м дымка 4/0
[Ac trans]
+32.7 +28.8 80 +56 +56 опасность
перегрева
1002.1 1001.0
21 14.08 В 5 5000 м мгла 3/3 750 м
[Sc diur, vesp]
+32.2 +27.9 78 +52 +52 опасность
перегрева
1002.8 1001.7
00 15.08 СВ 4 5000 м дымка 4/4 900 м
[Sc diur, vesp]
+31.6 +27.8 80 +51 +51 опасность
перегрева
1001.9 1000.9
03 15.08 ЮВ 5 5000 м мгла 5/3 750 м
[Sc Ac trans]
+31.9 +25.8 70 +47 +47 опасность
перегрева
1003.8 1002.8 +31.5
06 15.08 ЮВ 6 4000 м мгла 6/6 750 м
[Sc]
+34.2 +27.7 69 +54 +56 опасность
перегрева
1004.9 1003.8
09 15.08 Ю 8 4000 м мгла 8/8 750 м
[Sc]
+34.5 +27.9 69 +55 +56 опасность
перегрева
1003.6 1002.5
12 15.08 Ю 7 3500 м пыльный позёмок 1/0
[Ac trans]
+34.7 +27.1 65 +53 +55 опасность
перегрева
1000.8 999.7
15 15.08 Ю 4 4000 м мгла 6/1 900 м
[Cb calv Ac trans Cc]
+33.6 +28.5 75 +56 +56 опасность
перегрева
1001.1 1000.0 +35.3
18 15.08 штиль 0 4000 м мгла 5/1 750 м
[Cu hum Ac trans]
+32.0 +27.4 77 +51 +51 опасность
перегрева
1003.8 1002.7
21 15.08 В 4 4000 м зарница {гроза} 6/4 750 м
[Cb cap Ac trans]
+31.7 +27.2 77 +50 +50 опасность
перегрева
1003.5 1002.4
00 16.08 В 3 4000 м мгла 4/1 900 м
[Cu hum Ac trans]
+31.3 +26.5 76 +48 +48 опасность
перегрева
1002.7 1001.6
03 16.08 СВ 3 4000 м мгла 4/4 900 м
[Sc Ac trans]
+30.8 +26.8 79 +48 +49 опасность
перегрева
1004.0 1002.9 +30.6
06 16.08 ЮВ 6 5000 м мгла 6/6 900 м
[Sc]
+33.8 +27.1 68 +52 +54 опасность
перегрева
1005.5 1004.4
09 16.08 ЮВ 7 4000 м пыльный позёмок 4/4 900 м
[Sc]
+35.6 +27.5 63 +55 +58 опасность
перегрева
1003.7 1002.6
12 16.08 ЮВ 4 5000 м мгла 1/1 900 м
[Sc]
+34.9 +28.2 68 +56 +60 опасность
перегрева
1001.8 1000.7
15 16.08 Ю 4 4000 м мгла 8/5 750 м
[Cb calv Cc]
+33.3 +29.2 79 +57 +57 опасность
перегрева
1001.8 1000.7 +35.6
18 16.08 СВ 4 4000 м мгла 4/1 900 м
[Sc Ci fib]
+33.8 +27.4 69 +53 +53 опасность
перегрева
1002.1 1001.0
21 16.08 С 4 4000 м дымка 4/0
[Ac trans Ci fib]
+32.2 +28.7 82 +55 +55 опасность
перегрева
1000.7 999.6
00 17.08 С 2 4000 м дымка 4/0
[Ac trans Ci fib]
+31.3 +27.8 82 +51 +51 опасность
перегрева
1000.7 999.6
03 17.08 С 2 4000 м дымка 8/0
[Ac trans Cc]
+31.0 +27.4 81 +49 +51 опасность
перегрева
1001.9 1000.8 +30.9
06 17.08 Ю 3 4000 м мгла 3/0
[Ci fib]
+36.7 +28.3 62 +58 +69 опасность
перегрева
1003.2 1002.1
09 17.08 Ю 6 4000 м мгла 3/0
[Ci fib]
+37.4 +26.5 54 +54 +61 опасность
перегрева
1001.7 1000.6
12 17.08 Ю 8 4000 м мгла 3/0
[Ci fib]
+37.1 +28.9 63 +60 +61 опасность
перегрева
999.4 998.3
15 17.08 ЮЗ 5 4000 м мгла 3/0
[Ac trans Ci fib]
+36.4 +28.2 63 +57 +57 опасность
перегрева
998.7 997.6 +38.2
18 17.08 Ю 4 4000 м мгла 3/0
[Ac trans Ci fib]
+34.7 +28.4 70 +57 +57 опасность
перегрева
1000.2 999.1
21 17.08 штиль 0 4000 м мгла 3/0
[Ci fib]
+33.7 +28.9 76 +57 +57 опасность
перегрева
1000.1 999.0
00 18.08 С 2 4000 м мгла ясно +32.6 +27.7 75 +52 +52 опасность
перегрева
999.6 998.6
03 18.08 С 3 4000 м мгла 1/1 600 м
[Cu hum]
+32.1 +27.6 77 +51 +53 опасность
перегрева
1000.6 999.6 +31.4
06 18.08 СВ 4 4000 м мгла ясно +38.2 +28.3 57 +59 +69 опасность
перегрева
1001.4 1000.3

 

Местоположение метеостанции Bandarabbass (Иран): широта 27.22 долгота 56.37 высота над уровнем моря 10 м.

В архиве по умолчанию представлена погода в Bandarabbass за последнюю неделю. Архивные данные за месяц целиком и за предыдущие месяцы, начиная с января 2011 года, Вы можете получить, выбрав интересующий диапазон дат из раскрывающегося списка и нажав кнопку "Ввод!".

Внимание! Время в таблицах - всемирное. Для получения местного времени необходимо прибавить поправку, которая в Bandarabbass равна 3.5 ч.

Смотрите также архив погоды в соседних городах и на ближайших метеорологических станциях:

Погода в Khasab (Оман) (113 км)
Погода в Khasab Airport (Оман) (118 км)
Погода в Kahnuj (Иран) (155 км)
Погода в Bandar Lengeh (Иран) (169 км)
Погода в Diba (Оман) (178 км)
Погода в Ras Al Khaimah Int Airport (ОАЭ) (183 км)
Погода в Abu Musa Island (Иран) (218 км)
Погода в Baft (Иран) (224 км)
Погода в Jask (Иран) (225 км)
Погода в Sharjah (ОАЭ) (227 км)

Пояснения к столбцам:

Ветер - указаны скорость ветра в м/с - средняя за 10 мин, порывы в срок и между сроками (в фигурных скобках) и направление, откуда дует ветер: С - северный, СВ - северо-восточный, В - восточный, ЮВ - юго-восточный, Ю - южный, ЮЗ - юго-западный, З - западный, СЗ - северо-западный.
Видимость - горизонтальная дальность видимости в метрах или километрах. При видимости от 1 до 10 км при отсутствии осадков обычно наблюдается дымка, при ухудшении видимости до 1 км и менее - туман. В сухую погоду видимость может ухудшаться дымом, пылью или мглою.
Явления - указаны атмосферные явления, наблюдавшиеся в срок или в последний час перед сроком; фигурными скобками обозначены явления, наблюдавшиеся между сроками (за 1-3 часа до срока); квадратными скобками обозначены град или гололедные отложения с указанием их диаметра в мм.
Облачность - указаны через наклонную черту общая и нижняя облачность в баллах и высота нижней границы облаков в метрах; квадратными скобками обозначены формы облаков: Ci - перистые, Cs - перисто-слоистые, Cc - перисто-кучевые, Ac - высококучевые, As - высокослоистые, Sc - слоисто-кучевые, Ns - слоисто-дождевые, Cu - кучевые, Cb - кучево-дождевые. Подробнее классификацию облаков см. в Атласе облаков (PDF).
T - Температура воздуха - температура, измеренная на высоте 2 м над землей.
Td - Температура точки росы - температура, при понижении до которой содержащийся в воздухе водяной пар достигнет насыщения.
f - Относительная влажность воздуха - влажноcть воздуха, измеренная на высоте 2 м над землей.
Te - Эффективная температура - температура, которую ощущает одетый по сезону человек в тени. Характеристика душности погоды. При расчете учитывается влияние влажности воздуха и скорости ветра на теплоощущения человека.
Tes - Эффективная температура на солнце - температура, которую ощущает человек, с поправкой на солнечный нагрев. Характеристика знойности погоды. Зависит от высоты солнца над горизонтом, облачности и скорости ветра. Ночью, в пасмурную погоду, а также при ветре 12 м/с и более поправка равна нулю.
P - Атмосферное давление - приведенное к уровню моря атмосферное давление.
Po - Атмосферное давление - измеренное на уровне метеостанции атмосферное давление.
Tmin - Минимальная температура - минимум температуры воздуха на высоте 2 м над землей.
Tmax - Максимальная температура - максимум температуры воздуха на высоте 2 м над землей.
R - Количество осадков - Количество выпавших осадков за период времени, мм. При наведении курсора мыши на число - период времени, за который выпало указанное количество осадков.
R24 - Количество осадков - Количество выпавших осадков за 24 часа, мм.
S - Снежный покров - Высота снежного покрова, см. При наведении курсора мыши на число - состояние снежного покрова и степень покрытия местности в баллах.